Lapse_Rate
3.7 3.6 3.4 3.2 3.3 3.3 3.4 3.4 3.4 4.0 4.2 3.5 2.7 2.5 2.8 2.8 2.2 3.2 4.4 3.3 5.5 7.8 7.9 6.1 6.9 7.4 7.2 7.2 6.5 7.1 6.9 6.9 6.7 6.5 6.5 6.5 6.5 6.5 6.5 6.5 6.5 6.5 6.5 6.5 6.5 6.5 6.5 6.8 6.7 6.5 6.6 7.1 7.2 7.2
3.7 3.9 3.8 3.8 3.0 3.2 3.5 3.5 3.4 3.4 4.0 3.8 3.1 2.5 2.9 3.4 4.1 3.2 6.0 3.4 4.0 6.2 7.4 4.8 6.3 6.2 7.1 7.7 7.6 7.6 7.1 7.0 7.1 6.5 6.5 6.5 6.5 6.5 6.5 6.5 6.5 6.5 6.5 6.5 6.5 6.5 6.6 7.2 6.9 7.4 7.5 7.2 7.3 7.4
4.5 4.5 4.4 3.7 4.0 4.1 3.5 4.0 3.6 4.0 3.3 3.9 3.5 2.9 3.0 3.5 3.9 3.7 5.0 4.2 4.7 6.4 6.9 6.1 6.5 5.8 4.4 4.6 6.5 7.3 7.6 7.8 7.4 7.3 6.9 6.5 6.5 6.5 6.5 6.5 6.5 6.5 6.8 6.5 6.5 6.5 6.6 7.1 7.5 7.6 7.7 7.6 7.8 7.9
4.7 4.6 4.9 4.7 4.5 4.9 4.3 4.1 3.9 4.4 4.7 3.9 3.9 3.7 3.6 3.5 3.8 3.8 4.5 4.2 5.7 6.5 7.0 6.8 3.6 4.3 3.5 3.6 4.9 6.6 7.1 6.0 6.8 7.1 7.0 6.5 6.5 6.9 6.5 6.5 6.5 6.6 6.6 6.5 6.5 6.5 7.0 7.3 7.6 7.8 7.8 7.7 7.6 7.8
5.6 5.5 5.3 5.1 4.9 5.3 5.3 4.7 4.4 3.9 4.8 5.2 4.6 4.8 4.4 4.1 4.5 4.3 3.5 3.1 4.5 6.2 6.9 6.8 5.8 4.0 4.1 4.6 4.6 5.4 7.1 8.0 7.7 7.0 6.6 6.5 6.9 6.7 6.7 6.5 6.5 6.9 6.5 6.5 6.5 6.8 6.9 6.9 7.5 6.9 7.6 7.5 7.8 7.7
5.8 5.7 5.3 5.4 5.4 5.4 5.6 5.6 5.4 4.9 5.2 4.9 4.9 4.7 4.5 4.2 4.3 5.7 5.6 3.3 2.8 5.3 6.3 6.5 5.6 5.1 5.0 5.2 6.3 6.1 6.6 8.0 7.8 7.2 6.8 7.1 7.0 6.9 6.5 6.5 6.6 7.2 7.5 7.7 6.9 7.6 7.4 7.6 7.0 8.0 7.5 7.7 8.0 6.9
5.7 5.7 5.7 5.9 6.0 6.0 6.0 6.1 6.1 5.9 6.3 6.1 5.6 4.8 4.5 4.3 4.6 6.0 5.9 5.1 3.2 3.8 6.1 6.7 6.7 5.2 5.8 6.1 6.6 6.8 6.6 7.9 7.2 7.1 6.9 6.9 7.0 6.8 6.5 6.5 6.6 7.2 7.5 7.6 7.9 7.7 7.1 7.3 7.3 7.5 7.5 6.7 6.5 5.9
6.0 5.8 5.9 6.0 5.9 6.0 5.9 6.0 5.8 5.9 5.9 6.1 6.1 5.1 4.3 4.8 4.6 5.3 5.4 3.5 4.4 5.3 3.8 6.5 6.5 6.4 6.9 7.4 7.2 7.8 7.5 7.6 7.5 7.2 7.1 6.8 6.9 6.9 6.5 6.6 7.1 7.4 7.1 7.2 7.6 7.7 7.1 7.0 5.2 5.6 6.1 6.3 5.8 5.9
6.4 6.5 6.5 6.3 6.2 6.0 5.7 5.8 6.0 6.4 6.6 7.0 5.9 4.1 4.0 4.7 4.9 5.6 4.2 4.5 4.3 5.3 6.4 6.8 6.5 6.5 6.7 7.5 7.7 7.4 7.8 6.5 7.7 6.6 6.7 6.9 6.5 6.5 6.5 6.7 7.1 7.3 7.2 6.6 6.5 7.3 7.1 6.1 5.8 6.1 6.0 5.7 5.6 6.1
6.4 6.5 6.5 6.4 6.3 6.2 6.0 5.9 5.8 6.5 7.2 5.9 4.9 4.3 4.7 4.5 3.4 4.3 4.9 6.5 5.8 6.0 5.9 6.8 7.5 6.5 7.2 7.3 6.9 6.9 7.3 6.5 6.5 6.6 7.3 6.5 6.5 6.8 7.1 7.1 7.5 7.1 6.4 6.9 3.5 4.1 4.0 4.0 3.8 5.4 5.1 5.3 5.5 5.8
6.5 6.5 6.6 6.5 6.4 6.4 6.4 6.2 6.3 6.4 5.7 5.7 5.1 4.7 3.2 4.1 5.2 6.6 6.9 6.8 7.0 6.8 7.2 7.3 7.2 6.6 6.8 6.5 6.5 7.3 6.5 6.5 6.5 6.5 6.5 6.5 6.5 6.5 6.8 7.1 7.2 7.9 7.3 5.6 5.0 4.8 4.3 4.2 3.1 3.9 4.7 4.0 3.3 3.5
6.6 6.6 6.6 6.7 6.6 6.6 6.5 6.5 6.9 6.8 6.9 5.5 4.5 3.6 4.0 4.3 5.4 6.6 6.5 6.8 6.5 6.5 7.1 6.8 7.1 7.5 7.5 7.0 6.8 7.0 6.5 6.5 6.5 6.8 6.5 6.5 6.5 5.6 5.5 5.5 4.5 5.3 7.9 6.8 4.8 3.7 2.6 2.6 3.1 2.8 2.9 2.6 2.3 1.6
6.6 6.5 6.7 6.8 6.8 6.9 6.9 6.7 6.9 6.8 5.8 5.1 4.6 4.5 5.6 6.4 6.5 6.5 6.5 6.5 6.5 6.8 7.1 7.2 6.6 7.4 6.8 6.3 6.8 6.5 6.5 6.5 6.9 6.5 6.5 6.5 6.5 5.8 5.6 3.2 2.8 2.8 4.2 4.1 2.4 1.7 2.0 2.4 2.1 2.1 2.2 2.3 2.7 2.2
6.9 6.8 6.8 6.9 7.0 7.0 7.0 6.9 7.0 6.6 7.4 5.5 5.9 6.5 6.5 6.5 6.5 6.5 6.5 6.5 6.9 7.1 7.2 7.3 7.0 6.8 7.2 6.6 6.6 6.5 6.5 6.5 6.5 6.5 6.5 6.5 6.4 5.6 5.8 4.8 3.1 1.7 1.4 1.2 -1.0 -0.5 0.0 0.6 1.4 1.9 1.8 2.4 2.0 1.9
7.2 7.1 7.0 7.1 7.1 7.1 7.0 7.0 7.2 7.6 6.8 6.5 6.2 6.5 6.5 7.0 6.7 6.3 5.2 5.2 4.8 7.3 6.6 6.5 6.3 6.8 6.5 6.5 6.5 6.5 6.5 6.5 6.5 6.5 6.5 6.0 4.4 3.4 3.5 3.4 3.3 2.3 0.7 -0.6 -0.7 -1.8 -1.9 -0.9 0.4 1.5 1.5 1.2 1.5 1.9
7.4 7.6 7.5 7.4 7.3 6.9 6.9 7.1 7.6 7.7 5.4 6.2 5.7 6.6 7.0 6.7 6.5 6.6 6.1 6.7 5.4 7.4 7.1 7.1 6.5 6.5 6.5 6.5 6.5 6.5 6.5 6.5 6.5 6.5 3.4 2.9 2.6 2.4 2.5 1.6 1.3 1.9 2.7 1.3 -0.3 -1.2 -1.4 -1.2 -1.0 -0.2 0.2 0.2 0.4 0.9
7.6 7.9 8.2 7.2 7.1 7.1 7.1 7.4 7.7 6.4 5.7 6.3 6.5 6.9 6.9 6.4 6.5 7.0 7.5 7.4 7.0 6.6 6.5 6.7 6.5 6.5 6.5 6.5 6.5 6.5 6.5 6.5 5.0 2.0 1.3 2.4 2.3 2.5 3.2 1.1 0.1 -0.2 1.5 1.7 0.5 -0.3 -1.1 -1.1 -1.3 -1.5 -1.6 -1.2 -0.8 -0.3
8.0 8.3 7.6 7.6 7.5 8.0 7.9 6.9 6.2 6.2 6.8 6.0 6.8 6.8 7.6 7.8 7.3 7.4 7.7 6.6 6.7 7.2 6.7 6.5 6.8 6.5 6.5 6.5 6.5 6.5 6.0 4.3 3.7 2.9 2.4 2.1 2.3 1.7 1.0 1.4 0.0 -0.8 -0.5 -0.8 -0.8 -1.1 -1.9 -2.2 -2.1 -1.5 -1.2 -1.0 -1.3 -1.4
8.1 8.0 7.6 7.6 7.7 7.3 6.3 5.7 5.3 6.9 6.8 6.6 7.0 7.3 7.3 7.5 7.9 8.0 7.8 6.5 6.9 7.0 6.1 6.5 6.5 6.5 6.5 6.4 6.4 5.9 5.9 6.3 6.5 6.7 4.2 3.7 3.5 2.9 2.5 0.4 -0.2 -0.7 -0.9 -0.9 -1.1 -0.6 0.3 -0.5 -0.0 -0.6 -0.8 -1.1 0.1 0.2
8.2 8.1 7.7 7.5 8.2 6.2 6.6 6.6 5.3 6.1 6.5 6.9 6.9 6.9 7.0 7.1 7.5 7.5 7.4 7.0 6.6 6.6 6.6 6.5 6.5 6.7 6.7 7.0 6.6 6.7 6.8 7.0 7.0 6.9 6.9 7.2 7.2 4.4 2.1 1.6 1.5 0.8 0.1 0.1 -1.0 0.2 0.1 -0.3 -0.7 -0.6 -0.5 0.4 1.2 2.7
8.3 8.3 8.0 7.7 6.4 5.8 6.2 6.5 6.7 6.7 6.5 6.8 6.9 6.8 6.7 6.0 6.2 6.6 6.6 6.8 6.8 6.5 6.5 6.9 7.2 7.6 7.6 7.8 8.0 7.6 7.4 7.4 7.5 7.1 7.2 7.0 7.5 7.5 4.8 2.3 1.5 2.4 2.3 2.1 1.4 0.9 1.4 0.9 1.0 -0.2 0.1 1.0 2.1 2.5
7.7 8.5 7.2 7.3 5.6 5.5 6.0 6.1 6.9 6.6 5.6 6.6 6.6 6.8 6.7 6.5 6.5 6.5 6.1 6.6 6.6 6.9 7.1 7.3 7.2 7.3 7.3 7.4 7.5 7.5 7.7 7.5 7.5 7.6 7.3 7.2 6.7 6.8 6.8 6.9 5.8 4.9 4.1 3.4 3.4 4.1 4.0 2.6 1.8 1.1 1.0 2.0 3.1 1.6
8.4 7.9 5.9 5.9 6.8 6.8 6.7 5.4 6.5 6.8 6.5 6.5 6.4 6.6 6.5 6.5 6.3 5.1 6.6 6.9 6.7 7.1 7.1 7.3 7.0 7.1 7.2 7.3 7.3 7.2 7.3 7.2 7.4 7.5 7.6 7.5 7.6 7.3 6.9 7.0 7.2 5.8 5.5 5.8 5.1 4.6 4.5 5.5 6.3 4.6 2.1 2.2 1.2 1.6
7.5 6.0 6.7 6.8 6.8 6.6 6.8 6.8 7.3 6.8 6.7 6.5 6.5 6.5 6.5 6.4 6.1 6.7 6.5 6.5 6.9 7.1 7.0 6.4 7.3 7.3 7.3 7.1 7.3 7.3 7.1 7.7 7.6 7.7 7.8 7.7 7.4 7.6 7.8 7.8 8.1 7.3 6.2 6.0 6.1 6.3 4.8 5.1 5.8 4.5 2.2 1.4 1.6 1.7
6.6 6.4 6.5 6.5 6.9 6.6 6.5 6.5 6.5 6.5 6.5 6.5 6.5 6.5 6.5 6.6 6.5 6.5 6.5 6.5 6.5 6.9 7.0 6.8 7.0 7.1 7.0 6.9 6.8 7.1 6.7 7.2 7.1 7.2 7.6 7.4 7.4 7.4 7.2 7.1 7.4 7.7 6.3 5.4 5.3 5.5 6.5 6.6 5.2 3.8 2.7 2.2 2.3 2.1
6.5 6.7 6.5 6.5 6.6 6.5 6.5 6.5 6.5 6.5 6.5 6.5 6.5 6.5 6.2 6.5 6.5 6.5 6.5 6.4 6.7 6.8 6.7 6.5 6.4 6.6 6.9 6.6 6.1 5.6 5.0 5.8 6.6 6.7 6.5 6.7 6.6 6.8 6.2 6.3 6.5 6.1 4.3 4.8 5.2 5.7 5.7 5.7 4.0 3.4 3.8 2.8 3.2 2.4
6.5 6.5 6.8 6.5 6.8 6.1 6.4 6.6 6.2 6.5 6.5 6.5 6.5 6.5 6.5 6.5 6.5 6.5 6.6 4.3 5.2 4.9 4.5 4.4 4.9 5.3 5.1 4.8 4.6 3.9 3.9 3.8 4.5 5.3 4.0 3.0 4.0 5.4 5.8 5.9 5.7 4.8 2.9 2.8 3.5 4.2 4.8 4.4 3.3 3.2 2.7 1.6 2.1 3.6
6.6 6.5 6.5 6.3 6.7 6.5 6.5 6.5 6.5 6.5 6.5 6.5 6.6 6.5 6.5 6.5 6.5 5.6 3.2 1.6 1.1 0.4 0.4 0.6 1.0 1.9 2.2 2.7 2.7 2.2 1.2 1.1 -0.1 -0.3 0.7 1.1 0.3 0.2 1.7 2.8 3.0 2.5 2.6 2.5 2.9 3.0 3.4 3.8 3.2 3.1 2.6 2.5 2.4 3.2
6.6 6.5 6.5 6.5 6.3 6.4 6.5 6.5 6.5 6.0 5.3 5.8 6.5 6.5 6.5 5.5 6.2 5.8 4.5 1.4 -0.4 0.2 1.1 2.2 2.5 -0.2 0.1 0.5 0.3 0.3 0.4 0.9 1.5 2.5 2.2 3.2 3.1 2.3 -0.1 -0.3 -0.2 0.6 1.5 2.2 2.5 0.7 1.9 2.1 2.0 2.2 2.1 2.2 2.0 1.4
6.3 6.5 6.5 6.3 6.5 6.5 6.2 4.8 5.3 5.9 4.1 5.3 5.8 4.6 4.7 4.4 4.0 3.0 2.7 2.2 1.5 2.6 3.0 2.9 3.3 1.5 3.1 3.0 2.8 2.4 -1.1 -0.3 0.7 2.7 3.9 3.0 3.1 1.4 -0.5 -1.7 -1.4 -0.7 -0.2 0.7 -0.6 -0.4 1.3 0.8 1.3 -0.1 -0.3 -0.3 0.1 0.1
5.7 6.3 6.5 6.4 6.5 6.5 6.8 3.3 0.9 2.8 3.2 3.4 3.4 5.6 6.6 6.5 6.3 4.6 3.5 3.5 3.1 3.2 3.5 3.9 3.6 2.5 1.9 1.7 2.4 2.7 2.3 -0.3 -0.9 0.6 2.0 2.2 0.3 0.2 -1.1 -1.8 -1.7 -1.8 -1.3 -1.3 -1.3 -0.2 0.4 -0.7 -1.1 -1.0 -1.1 -0.9 -0.4 -0.3
5.3 6.3 6.5 6.5 6.5 4.4 -0.8 2.2 4.4 4.4 4.2 3.7 6.1 2.6 3.7 4.3 6.2 6.6 6.7 3.5 3.9 4.0 4.2 4.7 4.6 4.9 4.2 3.3 3.1 2.3 3.5 3.4 -0.1 -0.5 0.5 1.3 0.9 0.1 -1.0 -2.2 -2.4 -2.1 -1.9 -1.7 -1.3 -0.8 -2.0 -2.0 -1.3 -1.1 -1.1 -0.8 -1.1 -1.1
6.8 6.7 5.6 6.3 6.1 6.4 5.1 4.0 6.6 6.5 6.0 6.4 5.5 6.2 6.5 6.5 6.5 7.0 4.6 4.5 5.6 5.7 5.6 5.2 4.7 4.0 3.7 3.5 3.2 2.9 3.1 2.4 2.0 1.4 0.9 1.3 1.0 -0.4 -1.9 -1.2 -1.4 -1.0 -0.8 -1.2 -1.8 -2.9 -2.7 -2.1 -2.1 -1.9 -1.4 -1.9 -1.6 -0.8
Wind_Speed
12 12 11 11 11 10 9 10 11 11 9 7 6 8 9 9 9 6 2 4 2 3 5 5 4 5 3 4 5 4 2 3 3 4 3 4 4 3 3 7 4 10 7 6 7 8 11 11 9 7 3 4 1 4
13 13 12 11 12 12 11 11 11 10 11 9 6 6 7 7 7 6 1 1 3 4 4 2 9 9 8 6 4 6 2 1 3 4 3 3 4 3 6 5 8 6 10 4 10 7 3 14 10 11 3 4 5 9
12 14 13 11 12 12 12 12 11 12 10 11 9 6 6 5 3 2 2 2 2 3 5 3 6 6 5 7 4 5 5 4 4 1 2 3 6 5 6 10 14 10 13 6 6 10 17 17 16 14 11 10 9 8
10 10 12 12 13 14 13 13 12 12 12 11 11 9 7 5 4 4 1 1 1 3 4 3 2 2 1 3 9 8 5 1 0 2 4 5 6 5 6 10 13 11 3 11 17 21 20 21 18 17 15 7 7 8
13 13 12 13 12 15 14 12 13 12 13 13 12 12 9 6 5 4 5 4 3 2 3 5 3 3 1 3 5 6 7 7 4 3 4 4 4 4 8 9 15 15 16 12 9 10 13 12 1 5 6 8 8 8
12 13 13 14 13 12 13 13 14 13 14 13 13 13 11 6 2 3 2 2 6 2 2 4 2 2 2 3 4 5 4 5 4 3 3 4 1 3 4 5 9 10 15 19 18 15 9 10 7 7 10 10 8 6
10 11 11 13 12 10 9 12 16 14 13 13 13 15 13 10 5 3 2 2 8 3 1 4 3 2 3 3 3 2 2 2 2 2 4 4 3 3 4 10 11 7 12 14 15 13 14 11 8 3 6 6 6 8
11 11 8 10 9 11 10 12 12 14 11 11 11 14 12 9 3 4 4 12 9 1 1 3 4 2 7 3 3 2 3 3 4 3 1 3 2 3 7 24 14 16 11 13 13 12 13 7 2 6 7 7 10 10
12 10 10 8 9 10 10 11 12 12 10 10 1 14 4 1 2 1 4 7 1 2 3 3 3 3 3 3 2 3 3 3 2 4 4 5 5 9 17 16 15 11 9 7 5 9 8 9 9 7 8 8 9 8
13 13 13 10 9 9 10 11 10 10 11 13 3 1 2 1 10 9 2 2 3 3 3 4 3 4 4 3 3 3 3 3 3 4 2 4 8 23 22 16 12 10 8 7 3 3 5 5 6 7 7 6 6 5
16 15 13 13 10 9 10 9 7 9 12 1 2 1 1 6 1 2 3 4 4 4 4 4 6 8 6 4 4 4 2 3 3 4 4 4 5 6 8 11 13 19 15 12 10 3 2 4 4 4 6 5 5 5
17 16 14 14 10 9 9 8 3 3 1 2 4 3 1 1 2 4 4 3 4 5 4 3 3 5 3 2 4 3 3 1 5 3 3 4 7 7 9 11 5 7 12 12 10 7 6 5 5 6 5 4 4 4
18 16 15 15 12 12 11 9 8 5 12 2 0 2 3 4 7 7 9 4 4 4 4 4 3 4 2 3 3 3 5 6 1 3 5 7 5 7 6 3 2 1 5 6 7 6 5 6 5 6 6 6 5 6
20 19 17 16 14 13 13 11 7 14 3 3 4 5 7 7 6 6 6 4 2 2 5 4 3 2 1 4 2 3 2 2 3 5 8 4 5 7 8 4 4 5 6 5 6 5 6 6 6 6 6 4 5 6
20 20 19 18 16 15 14 14 14 10 4 4 4 7 11 8 1 1 2 2 3 5 6 3 1 2 2 3 3 2 3 5 6 6 3 3 4 6 7 4 6 5 5 6 5 7 7 7 6 6 5 5 5 5
21 19 16 17 16 16 17 17 6 5 3 5 6 7 4 2 4 4 4 3 5 6 2 0 3 3 6 4 6 9 4 7 5 4 4 4 6 5 6 6 7 6 6 5 5 5 5 7 8 6 4 6 6 7
22 6 12 17 21 20 19 5 4 6 5 5 7 8 12 8 7 5 6 4 8 6 4 3 5 11 2 3 4 5 7 6 5 4 4 5 8 9 7 5 7 5 7 7 5 6 5 4 3 3 7 6 6 6
10 10 19 20 17 8 3 5 4 6 10 8 7 11 8 11 14 13 9 6 6 6 5 5 1 6 6 6 5 6 8 9 7 8 9 9 8 7 6 10 7 8 8 7 8 6 6 8 8 8 7 6 6 6
16 16 20 22 15 4 3 4 5 5 8 7 13 11 10 8 9 10 8 7 10 4 2 3 7 6 12 13 16 17 15 13 11 12 5 8 10 10 11 7 8 8 9 10 8 7 6 9 8 5 5 6 6 6
29 25 23 26 20 5 6 4 3 5 10 12 7 9 10 12 10 11 10 7 9 4 6 6 12 15 14 14 13 14 15 14 12 12 13 12 10 8 9 10 8 9 7 6 5 8 5 5 6 7 7 8 7 8
18 17 22 19 5 8 3 3 5 4 3 8 8 8 11 4 8 12 10 7 9 5 9 13 17 19 24 21 17 16 16 16 16 13 15 14 13 12 8 7 8 7 8 7 8 9 13 8 9 8 8 9 9 8
6 16 6 8 4 5 5 6 3 1 3 3 2 3 8 12 12 9 3 7 6 10 11 16 18 18 19 20 20 22 20 22 20 16 18 15 13 14 13 12 9 11 10 9 9 10 9 8 7 8 9 9 10 8
11 7 3 5 7 7 4 6 6 6 6 5 3 5 6 8 6 5 4 5 7 12 15 15 22 23 19 24 22 22 20 19 13 13 14 14 14 14 13 12 10 10 10 11 9 10 10 11 11 10 9 7 7 8
10 5 7 5 10 6 5 7 4 5 6 11 9 18 16 11 5 5 8 13 13 15 14 19 13 15 15 18 16 17 18 10 13 15 15 13 12 13 12 12 11 9 10 10 9 9 8 8 11 8 8 8 8 8
6 8 6 7 6 7 6 6 6 8 12 13 19 12 5 2 6 8 13 15 17 15 13 12 12 13 14 15 14 15 16 9 11 14 10 9 12 11 9 8 9 10 7 6 7 9 10 9 7 8 8 8 9 10
9 11 6 10 5 6 7 9 9 14 10 8 8 4 5 5 6 7 11 15 13 14 13 10 11 11 11 13 14 12 11 6 8 10 11 9 9 9 10 10 9 10 6 7 7 12 11 7 7 10 8 11 16 10
7 8 5 5 5 4 5 5 6 6 7 8 5 7 5 5 7 10 13 5 10 9 8 8 9 10 11 11 9 9 7 6 9 9 3 2 4 7 8 9 13 8 5 7 7 8 9 8 9 9 9 7 8 9
5 7 15 11 6 6 15 9 6 7 6 4 4 7 8 9 8 5 4 3 3 3 3 3 5 7 8 9 8 5 4 5 2 2 3 6 7 8 10 8 7 8 4 5 5 5 6 6 6 7 7 7 6 7
7 7 8 9 11 5 7 7 8 6 4 5 9 11 10 8 12 7 5 4 1 1 4 6 6 4 5 6 6 6 6 4 5 11 11 8 8 6 6 5 4 4 3 4 9 5 5 4 4 4 5 5 5 7
7 7 10 8 7 9 7 7 6 9 4 7 6 5 7 7 7 5 6 5 6 9 10 9 8 4 9 8 10 10 7 8 9 11 9 9 8 1 2 3 4 4 4 5 5 5 8 6 7 6 6 6 6 6
4 6 5 9 14 14 14 3 1 1 2 4 4 8 16 13 9 6 8 9 9 10 11 13 11 9 8 10 11 11 10 6 13 16 15 7 4 4 3 3 4 4 5 6 6 7 7 6 5 6 7 8 9 9
6 9 9 11 14 7 2 4 3 5 5 4 8 5 2 3 13 13 10 6 9 12 18 14 13 13 10 12 9 7 14 9 5 8 12 9 7 6 5 4 6 5 6 6 7 7 9 8 6 6 7 9 9 9
3 3 2 5 2 5 4 3 4 5 3 5 6 9 12 11 18 17 3 7 10 12 13 13 12 12 12 11 9 9 12 9 10 12 14 16 15 13 8 6 7 7 9 7 7 8 9 10 8 8 8 9 9 9
Wind_Direction
266 274 284 288 289 295 292 289 298 308 304 302 320 338 348 358 12 6 46 6 343 286 274 222 241 210 187 214 254 107 221 186 191 236 247 237 249 202 265 246 204 196 196 196 207 219 253 148 133 212 88 125 136 214
270 271 268 278 289 289 290 294 290 290 293 288 284 300 321 341 352 5 296 358 320 250 286 264 258 270 278 296 231 186 314 189 238 249 264 303 248 228 266 271 199 243 220 264 206 225 208 187 229 216 326 301 276 282
280 278 269 274 279 281 286 292 301 291 282 282 270 261 279 306 331 23 325 340 260 279 275 246 238 221 245 233 274 245 214 235 213 36 307 284 262 278 252 241 256 228 251 240 263 249 258 255 244 251 265 273 282 271
294 290 291 287 286 287 287 289 297 300 289 276 268 255 254 262 276 232 255 133 262 295 283 266 117 233 89 217 233 250 301 124 70 225 242 246 242 230 259 275 277 247 176 235 253 266 274 270 263 269 261 246 246 262
285 282 281 286 289 288 283 287 296 299 297 285 264 249 240 246 277 257 251 212 240 239 292 291 303 85 83 228 208 213 235 241 247 228 216 238 256 279 252 265 259 226 233 225 242 246 250 281 249 166 203 227 253 268
276 279 284 281 278 285 288 289 294 301 295 295 273 240 221 213 220 295 276 184 189 186 284 297 91 157 112 131 180 183 199 220 226 240 260 245 51 259 266 254 249 231 225 231 242 248 284 277 320 245 254 267 261 255
282 281 284 291 288 286 288 290 293 291 291 299 293 233 208 188 172 216 316 37 162 139 240 293 267 147 150 142 147 147 169 207 253 237 233 250 192 224 258 255 237 263 240 243 244 258 267 253 254 274 251 243 267 276
285 279 282 282 290 293 297 297 298 296 281 297 308 236 178 179 229 271 200 163 162 145 202 256 266 255 178 171 172 162 170 192 209 252 176 209 154 234 254 244 258 253 278 257 236 235 247 298 316 255 247 269 274 268
279 269 274 270 280 283 292 303 307 303 292 314 9 126 106 133 220 304 110 157 156 214 231 203 248 277 161 127 117 170 200 215 177 240 228 201 207 228 236 248 250 249 227 245 231 232 242 246 262 265 267 261 254 259
252 260 267 262 264 279 291 298 306 308 311 132 84 157 218 214 119 128 190 191 180 219 231 234 232 248 176 175 188 184 200 232 226 214 158 234 254 260 255 250 250 240 229 201 160 224 213 241 240 248 239 238 237 240
237 244 257 259 251 267 275 291 315 93 118 87 198 187 328 142 273 239 238 214 186 236 213 234 238 219 186 176 205 225 216 220 241 164 204 243 262 253 276 256 256 244 216 206 220 191 208 225 225 251 235 224 220 216
240 238 241 248 248 256 259 273 278 186 74 92 114 100 89 222 230 224 201 180 222 243 198 236 203 210 160 225 210 183 227 225 266 137 228 248 255 262 274 269 274 258 218 199 207 226 226 228 235 243 247 244 227 193
242 243 248 245 242 248 253 256 247 167 122 82 183 173 181 183 236 221 193 178 215 201 181 179 176 171 177 228 214 185 218 226 104 229 252 241 292 287 292 274 224 174 166 179 188 199 209 215 204 216 231 231 230 205
238 236 237 243 244 243 242 241 229 155 158 211 186 225 217 210 234 204 202 189 145 128 148 170 138 210 141 183 206 237 217 226 240 231 233 268 299 310 304 220 201 203 200 193 196 194 203 205 215 216 222 216 193 199
234 236 235 238 233 241 243 234 232 194 178 221 204 222 222 237 252 174 87 164 170 155 143 126 109 231 161 233 204 201 218 239 230 236 249 271 311 309 295 238 227 227 204 211 196 196 207 208 213 229 217 204 198 187
233 242 238 232 227 228 230 240 238 195 231 201 231 242 235 236 227 186 187 212 166 161 114 99 166 219 221 212 182 210 209 229 236 219 235 291 288 273 278 240 225 230 232 226 212 213 207 207 202 204 176 200 196 189
223 228 194 208 218 223 223 219 184 193 229 228 222 224 247 269 244 211 192 207 156 146 199 193 205 217 122 233 239 210 219 237 240 248 255 234 261 282 277 256 237 207 232 226 210 205 211 188 161 194 212 204 195 191
223 205 198 204 204 201 197 200 213 212 222 236 240 241 233 244 248 249 236 150 167 194 164 224 180 203 212 222 237 238 244 261 260 260 271 277 259 232 238 267 254 222 216 217 216 211 182 184 203 222 211 173 179 191
218 210 201 205 200 175 180 213 199 254 224 233 240 245 254 262 257 261 256 197 205 181 171 179 232 230 242 246 253 262 266 265 267 276 246 251 249 255 261 240 236 238 232 226 203 212 217 213 226 211 191 167 212 203
221 217 209 211 200 186 201 211 184 226 240 246 246 245 243 246 252 250 239 209 195 190 210 223 241 242 242 242 238 249 261 270 267 275 278 274 273 261 251 247 245 240 237 240 234 215 200 204 214 212 202 195 193 221
221 223 223 214 212 199 207 207 211 230 238 233 249 242 239 236 242 238 232 199 200 204 235 236 245 247 246 254 262 264 262 261 266 264 269 278 280 282 258 234 233 243 237 236 219 219 222 219 221 202 208 209 215 222
204 195 191 191 227 218 212 185 238 176 208 237 221 217 248 247 240 228 174 198 219 228 230 242 247 250 255 257 258 260 263 265 266 273 274 268 268 271 268 267 258 251 245 236 235 241 237 226 219 200 201 217 208 206
185 177 171 177 213 213 222 152 202 197 234 228 217 243 242 238 227 143 225 225 238 234 238 242 247 252 255 262 270 269 263 262 266 263 263 258 257 261 266 267 259 252 254 254 243 242 238 238 243 221 211 199 196 204
146 187 196 219 192 207 152 199 205 216 225 229 236 238 241 244 197 221 251 247 248 252 243 242 246 253 254 255 258 262 265 257 258 258 254 262 266 265 261 264 264 249 242 253 253 249 241 242 227 213 197 193 196 199
226 195 209 203 181 190 192 186 196 218 230 224 223 232 230 156 223 230 242 256 251 257 255 247 240 242 245 258 265 263 264 245 252 260 261 254 259 267 267 263 263 260 241 228 238 245 251 242 214 201 190 187 192 194
221 200 224 185 186 198 188 215 214 221 229 217 221 250 219 208 220 234 244 253 252 253 251 242 240 247 245 242 255 264 264 238 246 254 255 244 253 257 261 264 265 262 198 215 230 250 252 228 199 198 203 203 203 193
196 205 196 207 203 177 205 239 240 217 189 205 203 179 194 227 232 242 251 236 246 244 237 240 234 235 242 254 252 254 253 225 226 247 283 213 239 245 242 244 251 255 183 194 203 222 235 221 214 214 214 199 200 198
212 195 211 211 211 222 235 239 182 210 228 217 152 188 200 208 231 235 209 264 252 251 262 253 237 232 232 241 252 254 246 234 275 351 283 270 249 247 243 244 246 182 175 175 185 196 211 217 206 206 203 193 185 176
218 211 207 226 213 193 207 210 227 225 195 177 226 238 242 243 260 258 256 231 270 301 267 266 262 211 237 251 252 244 240 223 222 250 251 260 278 268 211 227 214 192 165 179 191 156 168 167 174 180 171 162 150 144
211 200 220 203 198 221 221 190 232 244 215 229 247 275 265 264 255 246 251 249 249 249 247 249 261 213 259 262 272 266 215 214 214 225 239 231 238 169 194 187 188 175 157 155 130 121 137 122 129 117 122 129 136 137
163 185 234 226 234 239 241 246 8 197 205 214 213 238 251 270 273 241 234 245 247 254 261 263 261 242 242 256 257 263 275 220 224 227 231 235 156 155 199 176 156 147 144 140 133 137 142 137 143 146 147 143 155 144
178 198 218 234 245 224 148 188 209 213 208 206 237 205 269 254 260 266 245 223 240 248 253 257 258 257 238 250 257 227 229 249 208 212 220 221 211 156 156 151 138 145 137 137 141 139 139 138 146 147 144 141 136 139
221 194 223 245 234 212 173 166 225 249 218 239 238 233 239 241 259 265 238 208 233 249 256 256 254 256 253 250 227 228 227 231 225 208 208 205 188 168 146 149 144 140 146 142 130 137 141 140 135 135 134 132 134 138